This demonstration page uses our WeatherBlox Daily Observations layout. Learn more.

Hourly Observations for January 14, 2018

Temp ( °F °C ) Dew Point ( °F °C ) Humidity (%) Winds ( mph kmh ) Pressure ( in mb ) Visibility ( mi km ) Precip ( " mm )
12:15 am 00:15 Cloudy with Light Snow 16 -8.7 15 -9.7 93 93 SSW 3 6 30.53 1034 1.25 2.011675 0.01 0.254
12:35 am 00:35 Cloudy with Light Snow 17 -8.6 15 -9.5 93 93 S 5 7 30.5 1033 2 3.21868 0.02 0.508
12:55 am 00:55 Cloudy with Light Snow 17 -8.5 15 -9.3 94 94 S 7 11 30.48 1032 4 6.43736 0.02 0.508
1:15 am 01:15 Cloudy 17 -8.5 15 -9.3 94 94 S 6 9 30.48 1032 10 16.0934 0 0
1:35 am 01:35 Cloudy 17 -8.3 15 -9.2 93 93 S 6 9 30.48 1032 10 16.0934 0 0
1:55 am 01:55 Cloudy with Light Snow 17 -8.1 16 -9.1 93 93 S 7 11 30.48 1032 5 8.0467 0 0
2:15 am 02:15 Cloudy with Light Snow 18 -8 16 -8.8 94 94 S 6 9 30.48 1032 4 6.43736 0 0
2:35 am 02:35 Cloudy with Light Snow 18 -7.7 17 -8.5 94 94 SSW 6 9 30.48 1032 4 6.43736 0 0
2:55 am 02:55 Cloudy 19 -7.5 17 -8.3 94 94 S 7 11 30.48 1032 10 16.0934 0 0
3:15 am 03:15 Cloudy 19 -7.2 17 -8.1 93 93 SSW 9 15 30.48 1032 10 16.0934 0 0
3:35 am 03:35 Cloudy 19 -7.1 18 -8 93 93 SSW 6 9 30.48 1032 10 16.0934 0 0
3:55 am 03:55 Cloudy 19 -7.1 18 -8 93 93 SW 6 9 30.48 1032 10 16.0934 0 0
4:15 am 04:15 Cloudy 19 -7 18 -7.7 95 95 SW 5 7 30.48 1032 10 16.0934 0 0
4:35 am 04:35 Cloudy 19 -7 18 -7.7 95 95 WSW 3 6 30.48 1032 10 16.0934 0 0
4:55 am 04:55 Cloudy 20 -6.7 19 -7.5 94 94 SW 6 9 30.42 1030 10 16.0934 0 0
5:15 am 05:15 Cloudy 20 -6.6 19 -7.5 93 93 SW 5 7 30.42 1030 10 16.0934 0 0
5:35 am 05:35 Cloudy 20 -6.5 19 -7.3 94 94 WSW 5 7 30.45 1031 10 16.0934 0 0
5:55 am 05:55 Cloudy 21 -6.2 19 -7.2 93 93 WSW 6 9 30.42 1030 10 16.0934 0 0
6:15 am 06:15 Cloudy 21 -6 19 -7 93 93 W 7 11 30.42 1030 10 16.0934 0 0
6:35 am 06:35 Cloudy 22 -5.6 20 -6.6 93 93 W 5 7 30.45 1031 10 16.0934 0 0
6:55 am 06:55 Cloudy 21 -6.1 19 -7 93 93 W 3 6 30.42 1030 10 16.0934 0 0
7:15 am 07:15 Mostly Cloudy 20 -6.7 19 -7.5 94 94 W 8 13 30.45 1031 10 16.0934 0 0
7:35 am 07:35 Clear 19 -7.4 18 -8 96 96 W 6 9 30.45 1031 10 16.0934 0 0
7:55 am 07:55 Clear 19 -7.2 18 -7.6 97 97 W 6 9 30.45 1031 10 16.0934 0 0
8:15 am 08:15 Sunny 18 -7.7 17 -8.1 97 97 W 6 9 30.45 1031 10 16.0934 0 0
8:35 am 08:35 Sunny 18 -7.9 18 -8 99 99 W 6 9 30.45 1031 7 11.26538 0 0
8:55 am 08:55 Sunny 19 -7.1 19 -7.2 99 99 W 6 9 30.42 1030 7 11.26538 0 0
9:15 am 09:15 Sunny 22 -5.7 22 -5.8 99 99 W 7 11 30.42 1030 10 16.0934 0 0
9:35 am 09:35 Sunny 24 -4.4 23 -5 96 96 W 9 15 30.42 1030 10 16.0934 0 0
9:55 am 09:55 Sunny 25 -3.8 23 -4.9 92 92 W 7 11 30.39 1029 10 16.0934 0 0
10:15 am 10:15 Sunny 27 -2.9 24 -4.3 90 90 W 9 15 30.39 1029 10 16.0934 0 0
10:35 am 10:35 Sunny 28 -2.5 24 -4.3 88 88 WSW 6 9 30.39 1029 10 16.0934 0.01 0.254
10:55 am 10:55 Sunny 28 -2.2 24 -4.2 86 86 SW 6 9 30.39 1029 10 16.0934 0.01 0.254
11:15 am 11:15 Sunny 31 -0.8 26 -3.1 85 85 WSW 8 13 30.36 1028 10 16.0934 0 0
11:35 am 11:35 Sunny 31 -0.3 27 -2.8 83 83 WSW 12 19 30.33 1027 10 16.0934 0 0
11:55 am 11:55 Mostly Cloudy 32 0 28 -2.3 85 85 WSW 14 22 30.33 1027 10 16.0934 0 0
12:15 pm 12:15 Cloudy 33 0.5 29 -1.6 86 86 WSW 15 24 30.3 1026 10 16.0934 0 0
12:35 pm 12:35 Mostly Cloudy 34 1.1 30 -1.1 85 85 WSW 10 17 30.3 1026 10 16.0934 0 0
12:55 pm 12:55 Partly Cloudy 36 2.2 31 -0.6 82 82 WSW 12 19 30.24 1024 10 16.0934 0 0
1:15 pm 13:15 Sunny 37 2.8 32 -0.2 81 81 WSW 13 20 30.24 1024 10 16.0934 0 0
1:35 pm 13:35 Sunny 38 3.1 32 0 80 80 WSW 12 19 30.21 1023 10 16.0934 0 0
1:55 pm 13:55 Sunny 38 3.5 32 0.2 79 79 WSW 10 17 30.21 1023 10 16.0934 0 0
2:15 pm 14:15 Sunny 38 3.6 33 0.5 80 80 WSW 14 22 30.21 1023 10 16.0934 0 0
2:35 pm 14:35 Sunny 39 3.8 33 0.6 80 80 WSW 9 15 30.21 1023 10 16.0934 0 0
2:55 pm 14:55 Mostly Cloudy 39 3.8 33 0.8 81 81 WSW 10 17 30.21 1023 10 16.0934 0 0
3:15 pm 15:15 Cloudy 39 3.9 34 1 82 82 W 10 17 30.18 1022 10 16.0934 0 0
3:35 pm 15:35 Cloudy 39 4 34 1.2 82 82 W 9 15 30.18 1022 10 16.0934 0 0
3:55 pm 15:55 Cloudy 39 4.1 34 1.2 82 82 WSW 9 15 30.18 1022 10 16.0934 0 0
4:15 pm 16:15 Cloudy 40 4.3 35 1.5 82 82 WSW 9 15 30.15 1021 10 16.0934 0 0
4:35 pm 16:35 Cloudy 40 4.4 35 1.5 82 82 W 12 19 30.15 1021 10 16.0934 0 0
4:55 pm 16:55 Cloudy 40 4.4 34 1.3 81 81 W 10 17 30.15 1021 10 16.0934 0 0
5:15 pm 17:15 Cloudy 40 4.2 34 1.3 82 82 W 12 19 30.18 1022 10 16.0934 0 0
5:35 pm 17:35 Cloudy 40 4.4 35 1.4 81 81 W 10 17 30.15 1021 10 16.0934 0 0
5:55 pm 17:55 Mostly Cloudy 40 4.2 35 1.4 82 82 W 9 15 30.15 1021 10 16.0934 0 0
6:15 pm 18:15 Mostly Cloudy 39 3.9 34 1.1 82 82 W 7 11 30.18 1022 10 16.0934 0 0
6:35 pm 18:35 Mostly Cloudy 39 3.9 34 1.1 82 82 WNW 7 11 30.18 1022 10 16.0934 0 0
6:55 pm 18:55 Partly Cloudy 38 3.6 33 0.7 82 82 N 5 7 30.21 1023 10 16.0934 0 0
7:15 pm 19:15 Partly Cloudy 37 3 33 0.5 84 84 NW 5 7 30.21 1023 10 16.0934 0 0
7:35 pm 19:35 Mostly Cloudy 37 3 33 0.6 84 84 N 7 11 30.21 1023 10 16.0934 0 0
7:55 pm 19:55 Cloudy 37 2.6 32 0.2 84 84 NNW 10 17 30.21 1023 10 16.0934 0 0
8:15 pm 20:15 Cloudy 37 3 32 0 81 81 NNW 13 20 30.21 1023 10 16.0934 0 0
8:35 pm 20:35 Cloudy 36 2.4 32 0 84 84 N 9 15 30.21 1023 10 16.0934 0 0
8:55 pm 20:55 Cloudy 36 2.2 32 0 86 86 N 14 22 30.24 1024 10 16.0934 0 0
9:15 pm 21:15 Cloudy with Light Rain 35 1.7 32 -0.1 88 88 N 15 24 30.24 1024 10 16.0934 0 0
9:35 pm 21:35 Cloudy with Light Rain 34 1 32 0 93 93 N 13 20 30.3 1026 5 8.0467 0 0
9:55 pm 21:55 Cloudy with Light Wintry Mix 33 0.5 32 0.2 98 98 N 14 22 30.3 1026 4 6.43736 0 0
10:15 pm 22:15 Cloudy with Light Snow 33 0.3 32 0 98 98 N 16 26 30.3 1026 3 4.82802 0 0
10:35 pm 22:35 Windy with Snow Likely 32 -0.1 31 -0.4 98 98 N 21 33 30.33 1027 3 4.82802 0 0
10:55 pm 22:55 Cloudy 31 -0.5 28 -2.2 88 88 N 17 28 30.33 1027 10 16.0934 0 0
11:15 pm 23:15 Cloudy 31 -0.6 27 -2.7 86 86 N 16 26 30.33 1027 10 16.0934 0 0
11:35 pm 23:35 Cloudy 31 -0.7 27 -2.6 87 87 N 10 17 30.36 1028 10 16.0934 0 0
11:55 pm 23:55 Cloudy 29 -1.4 26 -3.5 86 86 N 17 28 30.39 1029 10 16.0934 0 0

Powered by AerisWeather